Time,TemperatureF,DewpointF,PressureIn,WindDirection,WindDirectionDegrees,WindSpeedMPH,WindSpeedGustMPH,Humidity,HourlyPrecipIn,Conditions,Clouds,dailyrainin,SoftwareType,DateUTC
2013-05-10 01:00:00,62.1,61.5,29.96,East,90,1.6,-999.0,98,-99.99,,,0.00,Acu-Link.com,2013-05-10 06:00:00,
2013-05-10 01:15:00,62.2,61.7,29.97,NNW,337,4.3,-999.0,98,-99.99,,,0.00,Acu-Link.com,2013-05-10 06:15:00,
2013-05-10 01:30:00,62.6,62.0,29.98,North,0,4.7,-999.0,98,-99.99,,,0.00,Acu-Link.com,2013-05-10 06:30:00,
2013-05-10 01:45:00,62.8,62.2,29.98,NNW,337,0.0,-999.0,98,-99.99,,,0.00,Acu-Link.com,2013-05-10 06:45:00,
2013-05-10 02:01:00,60.1,59.5,29.98,West,270,18.6,-999.0,98,-99.99,,,0.01,Acu-Link.com,2013-05-10 07:01:00,
2013-05-10 02:16:00,57.4,56.8,30.02,West,270,4.7,-999.0,98,-99.99,,,1.11,Acu-Link.com,2013-05-10 07:16:00,
2013-05-10 02:31:00,57.0,54.4,30.01,North,0,7.4,-999.0,91,-99.99,,,1.92,Acu-Link.com,2013-05-10 07:31:00,
2013-05-10 02:46:00,56.8,46.8,30.01,NNE,22,2.7,-999.0,69,-99.99,,,2.68,Acu-Link.com,2013-05-10 07:46:00,
2013-05-10 03:02:00,57.2,49.0,29.98,ESE,112,6.3,-999.0,74,-99.99,,,2.80,Acu-Link.com,2013-05-10 08:02:00,
2013-05-10 03:17:00,57.4,56.8,29.98,NE,45,11.4,-999.0,98,-99.99,,,2.85,Acu-Link.com,2013-05-10 08:17:00,
2013-05-10 03:32:00,57.6,57.0,29.94,NNE,22,9.4,-999.0,98,-99.99,,,2.87,Acu-Link.com,2013-05-10 08:32:00,
2013-05-10 03:47:00,57.6,57.0,29.94,ESE,112,11.9,-999.0,98,-99.99,,,2.89,Acu-Link.com,2013-05-10 08:47:00,
2013-05-10 04:02:00,57.9,57.4,29.90,West,270,15.0,-999.0,98,-99.99,,,2.96,Acu-Link.com,2013-05-10 09:02:00,
2013-05-10 04:17:00,61.9,61.3,29.88,ENE,67,16.6,-999.0,98,-99.99,,,3.09,Acu-Link.com,2013-05-10 09:17:00,
2013-05-10 04:32:00,60.3,59.7,29.86,NE,45,11.0,-999.0,98,-99.99,,,3.09,Acu-Link.com,2013-05-10 09:32:00,
2013-05-10 04:47:00,58.6,58.1,29.89,NW,315,7.8,-999.0,98,-99.99,,,3.09,Acu-Link.com,2013-05-10 09:47:00,
2013-05-10 05:03:00,58.3,57.7,29.94,West,270,9.8,-999.0,98,-99.99,,,3.09,Acu-Link.com,2013-05-10 10:03:00,
2013-05-10 05:18:00,58.1,57.5,29.94,WNW,292,11.4,-999.0,98,-99.99,,,3.09,Acu-Link.com,2013-05-10 10:18:00,
2013-05-10 05:33:00,57.9,57.4,29.95,NW,315,5.1,-999.0,98,-99.99,,,3.09,Acu-Link.com,2013-05-10 10:33:00,
2013-05-10 05:48:00,57.2,56.6,29.95,WSW,247,0.0,-999.0,98,-99.99,,,3.09,Acu-Link.com,2013-05-10 10:48:00,
2013-05-10 06:03:00,57.6,57.0,29.96,NNW,337,6.3,-999.0,98,-99.99,,,3.09,Acu-Link.com,2013-05-10 11:03:00,
2013-05-10 06:19:00,57.7,57.2,29.97,West,270,3.1,-999.0,98,-99.99,,,3.09,Acu-Link.com,2013-05-10 11:19:00,
2013-05-10 06:34:00,57.7,57.2,29.98,West,270,4.3,-999.0,98,-99.99,,,3.09,Acu-Link.com,2013-05-10 11:34:00,
2013-05-10 06:49:00,57.2,56.6,30.00,West,270,0.0,-999.0,98,-99.99,,,3.09,Acu-Link.com,2013-05-10 11:49:00,
2013-05-10 07:04:00,56.8,56.3,30.01,WSW,247,0.0,-999.0,98,-99.99,,,3.09,Acu-Link.com,2013-05-10 12:04:00,
2013-05-10 07:19:00,57.0,56.5,30.02,WNW,292,0.0,-999.0,98,-99.99,,,3.09,Acu-Link.com,2013-05-10 12:19:00,
2013-05-10 07:35:00,57.9,57.4,30.03,NW,315,4.7,-999.0,98,-99.99,,,3.09,Acu-Link.com,2013-05-10 12:35:00,
2013-05-10 07:50:00,59.0,58.4,30.03,NNW,337,8.9,-999.0,98,-99.99,,,3.09,Acu-Link.com,2013-05-10 12:50:00,
2013-05-10 08:05:00,59.4,58.8,30.03,NNW,337,8.3,-999.0,98,-99.99,,,3.09,Acu-Link.com,2013-05-10 13:05:00,
2013-05-10 08:20:00,59.9,59.3,30.04,NNE,22,11.4,-999.0,98,-99.99,,,3.09,Acu-Link.com,2013-05-10 13:20:00,
2013-05-10 08:36:00,60.6,60.1,30.04,NNE,22,11.0,-999.0,98,-99.99,,,3.09,Acu-Link.com,2013-05-10 13:36:00,
2013-05-10 08:51:00,61.2,60.6,30.05,NNE,22,12.5,-999.0,98,-99.99,,,3.09,Acu-Link.com,2013-05-10 13:51:00,
2013-05-10 09:06:00,62.4,61.8,30.05,NE,45,11.4,-999.0,98,-99.99,,,3.09,Acu-Link.com,2013-05-10 14:06:00,
2013-05-10 09:21:00,62.2,61.7,30.05,NNE,22,13.0,-999.0,98,-99.99,,,3.09,Acu-Link.com,2013-05-10 14:21:00,
2013-05-10 09:36:00,64.0,63.2,30.06,NNE,22,11.4,-999.0,97,-99.99,,,3.09,Acu-Link.com,2013-05-10 14:36:00,
2013-05-10 09:52:00,64.0,62.3,30.06,North,0,13.4,-999.0,94,-99.99,,,3.09,Acu-Link.com,2013-05-10 14:52:00,
2013-05-10 10:07:00,64.2,61.8,30.06,NE,45,6.7,-999.0,92,-99.99,,,3.09,Acu-Link.com,2013-05-10 15:07:00,
2013-05-10 10:22:00,67.1,62.8,30.06,NNE,22,9.8,-999.0,86,-99.99,,,3.09,Acu-Link.com,2013-05-10 15:22:00,
2013-05-10 10:37:00,68.0,60.9,30.05,NNE,22,7.8,-999.0,78,-99.99,,,3.09,Acu-Link.com,2013-05-10 15:37:00,
2013-05-10 10:52:00,67.5,61.1,30.06,NNE,22,12.5,-999.0,80,-99.99,,,3.09,Acu-Link.com,2013-05-10 15:52:00,
2013-05-10 11:08:00,66.6,60.9,30.06,NNW,337,11.9,-999.0,82,-99.99,,,3.09,Acu-Link.com,2013-05-10 16:08:00,
2013-05-10 11:23:00,67.3,59.8,30.06,North,0,13.4,-999.0,77,-99.99,,,3.09,Acu-Link.com,2013-05-10 16:23:00,
2013-05-10 11:38:00,68.7,60.5,30.07,NNE,22,9.4,-999.0,75,-99.99,,,3.09,Acu-Link.com,2013-05-10 16:38:00,
2013-05-10 11:53:00,69.3,60.2,30.07,NNW,337,10.3,-999.0,73,-99.99,,,3.09,Acu-Link.com,2013-05-10 16:53:00,
2013-05-10 12:08:00,68.7,59.7,30.07,NNW,337,9.8,-999.0,73,-99.99,,,3.09,Acu-Link.com,2013-05-10 17:08:00,
2013-05-10 12:24:00,70.3,60.1,30.07,NE,45,8.3,-999.0,70,-99.99,,,3.09,Acu-Link.com,2013-05-10 17:24:00,
2013-05-10 12:39:00,70.9,59.4,30.06,NNE,22,8.9,-999.0,67,-99.99,,,3.09,Acu-Link.com,2013-05-10 17:39:00,
2013-05-10 12:54:00,73.0,60.1,30.06,NE,45,11.0,-999.0,64,-99.99,,,3.09,Acu-Link.com,2013-05-10 17:54:00,
2013-05-10 13:09:00,73.9,59.6,30.05,NNE,22,7.8,-999.0,61,-99.99,,,3.09,Acu-Link.com,2013-05-10 18:09:00,
2013-05-10 13:25:00,72.5,58.3,30.05,NNW,337,13.0,-999.0,61,-99.99,,,3.09,Acu-Link.com,2013-05-10 18:25:00,
2013-05-10 13:40:00,73.6,58.8,30.05,NNW,337,8.3,-999.0,60,-99.99,,,3.09,Acu-Link.com,2013-05-10 18:40:00,
2013-05-10 13:55:00,73.4,57.7,30.05,NNW,337,13.0,-999.0,58,-99.99,,,3.09,Acu-Link.com,2013-05-10 18:55:00,
2013-05-10 14:10:00,75.2,58.4,30.04,ENE,67,9.8,-999.0,56,-99.99,,,3.09,Acu-Link.com,2013-05-10 19:10:00,
2013-05-10 14:25:00,74.3,58.1,30.04,NE,45,6.7,-999.0,57,-99.99,,,3.09,Acu-Link.com,2013-05-10 19:25:00,
2013-05-10 14:41:00,73.8,57.1,30.04,NW,315,13.4,-999.0,56,-99.99,,,3.09,Acu-Link.com,2013-05-10 19:41:00,
2013-05-10 14:56:00,73.6,57.9,30.05,NNE,22,7.8,-999.0,58,-99.99,,,3.09,Acu-Link.com,2013-05-10 19:56:00,
2013-05-10 15:11:00,74.1,56.9,30.05,ENE,67,5.8,-999.0,55,-99.99,,,3.09,Acu-Link.com,2013-05-10 20:11:00,
2013-05-10 15:26:00,74.3,57.1,30.05,NNE,22,5.1,-999.0,55,-99.99,,,3.09,Acu-Link.com,2013-05-10 20:26:00,
2013-05-10 15:41:00,74.5,57.7,30.04,North,0,9.4,-999.0,56,-99.99,,,3.09,Acu-Link.com,2013-05-10 20:41:00,
2013-05-10 15:57:00,74.3,57.1,30.03,NNE,22,9.8,-999.0,55,-99.99,,,3.09,Acu-Link.com,2013-05-10 20:57:00,
2013-05-10 16:12:00,73.9,56.7,30.03,ENE,67,8.3,-999.0,55,-99.99,,,3.09,Acu-Link.com,2013-05-10 21:12:00,
2013-05-10 16:27:00,73.8,56.6,30.03,NE,45,9.4,-999.0,55,-99.99,,,3.09,Acu-Link.com,2013-05-10 21:27:00,
2013-05-10 16:42:00,73.8,56.6,30.03,NNE,22,10.3,-999.0,55,-99.99,,,3.09,Acu-Link.com,2013-05-10 21:42:00,
2013-05-10 16:58:00,73.6,56.4,30.02,NE,45,7.8,-999.0,55,-99.99,,,3.09,Acu-Link.com,2013-05-10 21:58:00,
2013-05-10 17:13:00,72.1,55.6,30.02,NNE,22,9.8,-999.0,56,-99.99,,,3.09,Acu-Link.com,2013-05-10 22:13:00,
2013-05-10 17:28:00,72.3,56.2,30.01,North,0,11.9,-999.0,57,-99.99,,,3.09,Acu-Link.com,2013-05-10 22:28:00,
2013-05-10 17:43:00,71.4,56.3,30.01,NNE,22,9.8,-999.0,59,-99.99,,,3.09,Acu-Link.com,2013-05-10 22:43:00,
2013-05-10 17:59:00,71.4,55.4,30.01,NNE,22,9.8,-999.0,57,-99.99,,,3.09,Acu-Link.com,2013-05-10 22:59:00,
2013-05-10 18:14:00,71.1,55.5,30.01,NE,45,9.4,-999.0,58,-99.99,,,3.09,Acu-Link.com,2013-05-10 23:14:00,
2013-05-10 18:29:00,70.9,55.8,30.02,NNE,22,7.8,-999.0,59,-99.99,,,3.09,Acu-Link.com,2013-05-10 23:29:00,
2013-05-10 18:44:00,70.3,55.3,30.02,NE,45,6.3,-999.0,59,-99.99,,,3.09,Acu-Link.com,2013-05-10 23:44:00,
2013-05-10 18:59:00,69.8,55.7,30.02,ENE,67,6.3,-999.0,61,-99.99,,,3.09,Acu-Link.com,2013-05-10 23:59:00,
2013-05-10 19:15:00,69.4,55.4,30.01,NNE,22,9.4,-999.0,61,-99.99,,,3.09,Acu-Link.com,2013-05-11 00:15:00,
2013-05-10 19:30:00,69.4,55.8,30.02,North,0,5.8,-999.0,62,-99.99,,,3.09,Acu-Link.com,2013-05-11 00:30:00,
2013-05-10 19:45:00,68.9,55.3,30.03,NE,45,4.3,-999.0,62,-99.99,,,3.09,Acu-Link.com,2013-05-11 00:45:00,
2013-05-10 20:00:00,68.0,56.2,30.03,East,90,3.8,-999.0,66,-99.99,,,3.09,Acu-Link.com,2013-05-11 01:00:00,
2013-05-10 20:16:00,67.3,56.3,30.03,NNE,22,3.1,-999.0,68,-99.99,,,3.09,Acu-Link.com,2013-05-11 01:16:00,
2013-05-10 20:31:00,66.4,56.3,30.04,East,90,1.6,-999.0,70,-99.99,,,3.09,Acu-Link.com,2013-05-11 01:31:00,
2013-05-10 20:46:00,65.5,56.6,30.05,NE,45,0.0,-999.0,73,-99.99,,,3.09,Acu-Link.com,2013-05-11 01:46:00,
2013-05-10 21:01:00,64.9,56.8,30.05,NE,45,1.1,-999.0,75,-99.99,,,3.09,Acu-Link.com,2013-05-11 02:01:00,
2013-05-10 21:16:00,64.0,57.0,30.05,NE,45,0.0,-999.0,78,-99.99,,,3.09,Acu-Link.com,2013-05-11 02:16:00,
2013-05-10 21:32:00,63.0,57.4,30.06,East,90,0.0,-999.0,82,-99.99,,,3.09,Acu-Link.com,2013-05-11 02:32:00,
2013-05-10 21:47:00,61.7,57.5,30.07,ENE,67,0.0,-999.0,86,-99.99,,,3.09,Acu-Link.com,2013-05-11 02:47:00,
2013-05-10 22:02:00,61.2,57.6,30.08,East,90,0.0,-999.0,88,-99.99,,,3.09,Acu-Link.com,2013-05-11 03:02:00,
2013-05-10 22:17:00,60.8,57.5,30.09,ESE,112,0.0,-999.0,89,-99.99,,,3.09,Acu-Link.com,2013-05-11 03:17:00,
2013-05-10 22:32:00,60.6,57.4,30.10,ESE,112,0.0,-999.0,89,-99.99,,,3.09,Acu-Link.com,2013-05-11 03:32:00,
2013-05-10 22:48:00,60.6,57.4,30.10,East,90,0.0,-999.0,89,-99.99,,,3.09,Acu-Link.com,2013-05-11 03:48:00,
2013-05-10 23:03:00,60.4,57.2,30.10,ESE,112,0.0,-999.0,89,-99.99,,,3.09,Acu-Link.com,2013-05-11 04:03:00,
2013-05-10 23:18:00,60.1,56.8,30.10,ESE,112,0.0,-999.0,89,-99.99,,,3.09,Acu-Link.com,2013-05-11 04:18:00,
2013-05-10 23:33:00,59.5,56.9,30.10,East,90,0.0,-999.0,91,-99.99,,,3.09,Acu-Link.com,2013-05-11 04:33:00,
2013-05-10 23:48:00,59.2,56.6,30.10,North,0,0.0,-999.0,91,-99.99,,,3.09,Acu-Link.com,2013-05-11 04:48:00,